Location: Unspecified
(0.0000°N, 0.0000°E)
Time: 03:13:19
(UTC+00:00)

Hubble Space Telescope - Pass Details

Date: 16 November 2019
Orbit: 536 x 540 km, 28.5° (Epoch: 10 November)

Event Time Altitude Azimuth Distance (km) Brightness Sun altitude
Exits shadow 04:55:56 15° 269° (W) 1,485 2.4 -11.5°
Maximum altitude 04:58:48 34° 210° (SSW) 896 1.8 -10.9°
Drops below altitude 10° 05:02:35 10° 144° (SE) 1,784 4.3 -10.0°
Sets 05:04:59 0° 134° (SE) 2,675 5.6 -9.4°
